Location: Dampvalley
(47.9094°N, 6.1967°E)
Time: 04:04:57
(UTC+00:00)

SO-50 - Pass Details

Date: 29 November 2021
Orbit: 595 x 689 km, 64.6° (Epoch: 19 January)

Event Time Altitude Azimuth Distance (km) Brightness Sun altitude
Rises 17:31:18 0° 321° (NW) 3,013 ? -17.1°
Reaches altitude 10° 17:33:36 10° 323° (NW) 2,110 ? -17.5°
Maximum altitude 17:38:26 82° 51° (NE) 695 ? -18.3°
Enters shadow 17:42:27 15° 139° (SE) 1,805 ? -18.9°
